Houston, TX

2:48 AM CST on November 20, 2017 (GMT -0600)
Hobby

Weather History for KHOU - March, 2014

Change the Weather History Date:

Friday, March 7, 2014

  Actual Average Record
Temperature  
Mean Temperature 52 °F 61 °F  
Max Temperature 66 °F 71 °F 90 °F (1911)
Min Temperature 37 °F 51 °F 28 °F (1989)
Degree Days  
Heating Degree Days 13 6  
Month to date heating degree days 114 46  
Since 1 July heating degree days 1594 1234  
Cooling Degree Days 0 2  
Month to date cooling degree days 9 12  
Year to date cooling degree days 43 50  
Growing Degree Days 2 (Base 50)    
Moisture  
Dew Point 44 °F    
Average Humidity 72    
Maximum Humidity 100    
Minimum Humidity 44    
Precipitation  
Precipitation 0.00 in 0.12 in 1.58 in (1913)
Month to date precipitation 1.11 0.82  
Year to date precipitation 4.46 7.40  
Sea Level Pressure  
Sea Level Pressure 30.04 in    
Wind  
Wind Speed 4 mph (SE)    
Max Wind Speed 18 mph    
Max Gust Speed 26 mph    
Visibility 10 miles    
Events      
T = Trace of Precipitation, MM = Missing Value Source: NWS Daily Summary

Daily Weather History Graph

Daily Weather History Graph

Search for Another Location

Airport or City:

Trip Planner

Search our weather history database for the weather conditions in past years. The results will help you decide how hot, cold, wet, or windy it might be!

Date:

Astronomy

Mar. 07, 2014 Rise Set
Actual Time 6:40 AM CST 6:24 PM CST
Civil Twilight 6:16 AM CST 6:48 PM CST
Nautical Twilight 5:48 AM CST 7:15 PM CST
Astronomical Twilight 5:21 AM CST 7:43 PM CST
Moon 11:00 AM CST (3/7) 12:04 AM CST (3/7)
Length of Visible Light 12h 32m
Length of Day
11h 44m
Waxing Crescent, 42% of the Moon is Illuminated
Mar 7
Waxing Crescent
Mar 8
First Quarter
Mar 16
Full
Mar 23
Last Quarter
Mar 30
New

Hourly Weather History & Observations

Time (CST) Temp. Dew Point Humidity Pressure Visibility Wind Dir Wind Speed Gust Speed Precip Events Conditions
12:53 AM 45.0 °F 39.0 °F 80% 30.10 in 10.0 mi Calm Calm - N/A   Clear
1:53 AM 45.0 °F 39.0 °F 80% 30.09 in 10.0 mi Calm Calm - N/A   Partly Cloudy
2:53 AM 42.1 °F 37.9 °F 85% 30.08 in 10.0 mi Calm Calm - N/A   Clear
3:53 AM 41.0 °F 37.9 °F 89% 30.07 in 10.0 mi Calm Calm - N/A   Clear
4:53 AM 43.0 °F 37.9 °F 82% 30.06 in 10.0 mi Calm Calm - N/A   Scattered Clouds
5:53 AM 41.0 °F 37.0 °F 86% 30.07 in 10.0 mi Calm Calm - N/A   Clear
6:53 AM 41.0 °F 37.9 °F 89% 30.08 in 10.0 mi Calm Calm - N/A   Scattered Clouds
7:53 AM 46.9 °F 41.0 °F 80% 30.10 in 10.0 mi East 3.5 mph - N/A   Scattered Clouds
8:53 AM 54.0 °F 46.9 °F 77% 30.11 in 10.0 mi ESE 6.9 mph - N/A   Mostly Cloudy
9:53 AM 59.0 °F 45.0 °F 60% 30.13 in 10.0 mi ESE 6.9 mph - N/A   Overcast
10:53 AM 61.0 °F 41.0 °F 48% 30.12 in 10.0 mi SSE 11.5 mph - N/A   Overcast
11:53 AM 61.0 °F 42.1 °F 50% 30.09 in 10.0 mi South 9.2 mph - 0.00 in   Overcast
12:53 PM 64.0 °F 44.1 °F 48% 30.06 in 10.0 mi SE 11.5 mph - N/A   Mostly Cloudy
1:53 PM 64.9 °F 46.0 °F 50% 30.02 in 10.0 mi SSE 10.4 mph - N/A   Mostly Cloudy
2:53 PM 64.9 °F 46.9 °F 52% 29.99 in 10.0 mi SSE 11.5 mph 16.1 mph N/A   Mostly Cloudy
3:53 PM 63.0 °F 48.0 °F 58% 29.98 in 10.0 mi SSE 10.4 mph 18.4 mph N/A   Mostly Cloudy
4:53 PM 60.1 °F 46.9 °F 62% 29.99 in 10.0 mi South 11.5 mph - N/A   Mostly Cloudy
5:53 PM 57.9 °F 46.9 °F 67% 29.99 in 10.0 mi SSE 9.2 mph - N/A   Mostly Cloudy
6:53 PM 55.9 °F 46.9 °F 72% 29.98 in 10.0 mi SE 8.1 mph - N/A   Mostly Cloudy
7:53 PM 55.9 °F 46.9 °F 72% 29.99 in 10.0 mi SE 8.1 mph - N/A   Overcast
8:53 PM 55.0 °F 48.0 °F 77% 30.00 in 10.0 mi SE 8.1 mph - N/A   Overcast
9:53 PM 55.0 °F 48.9 °F 80% 30.01 in 10.0 mi SE 4.6 mph - N/A   Overcast
10:39 PM 55.4 °F 48.2 °F 77% 30.00 in 10.0 mi ESE 4.6 mph - N/A   Overcast
10:53 PM 55.9 °F 48.9 °F 77% 30.02 in 10.0 mi Calm Calm - N/A   Overcast
11:13 PM 55.4 °F 48.2 °F 77% 30.00 in 10.0 mi ESE 4.6 mph - N/A   Overcast
11:53 PM 55.9 °F 48.9 °F 77% 30.03 in 10.0 mi Calm Calm - N/A   Overcast